Location: Newark
(35.6799°N, 139.7636°E)
Time: 00:16:55
(UTC+00:00)

Transit 4A - Visible Passes

Search period start: 09 December 2019 00:00
Search period end: 19 December 2019 00:00
Orbit: 870 x 975 km, 66.8° (Epoch: 08 December)

Date Brightness Start Highest point End Pass type
(mag) Time Alt. Az. Time Alt. Az. Time Alt. Az.
09 Dec 8.2 07:49:42 10° SSW 07:55:56 72° WNW 08:02:03 10° NNE visible
09 Dec 10.3 09:40:52 10° WNW 09:43:18 12° NW 09:45:44 10° NNW visible
10 Dec 8.8 07:59:20 10° SW 08:05:20 48° WNW 08:11:13 10° NNE visible
11 Dec 9.4 08:09:18 10° WSW 08:14:49 33° NW 08:20:14 10° N visible
12 Dec 9.9 08:19:38 10° WSW 08:24:23 23° NW 08:29:05 10° N visible
13 Dec 10.2 08:30:29 10° W 08:34:04 16° NW 08:37:37 10° N visible
14 Dec 10.4 08:42:36 10° NW 08:43:52 11° NW 08:45:07 10° NNW visible
